Fallon NAS, NV

3:41 PM PST on December 17, 2017 (GMT -0800)
Fallon Naval Air Station

Weather History for KNFL - October, 2015

Change the Weather History Date:

Sunday, October 11, 2015

  Actual Average Record
Temperature  
Mean Temperature 67 °F -  
Max Temperature 84 °F 69 °F 86 °F (1999)
Min Temperature 50 °F 37 °F 25 °F (1946)
Cooling Degree Days 2    
Growing Degree Days 17 (Base 50)    
Moisture  
Dew Point 29 °F    
Average Humidity 27    
Maximum Humidity 52    
Minimum Humidity 7    
Precipitation  
Precipitation 0.00 in - - ()
Sea Level Pressure  
Sea Level Pressure 30.05 in    
Wind  
Wind Speed 6 mph (North)    
Max Wind Speed 12 mph    
Max Gust Speed -    
Visibility 10 miles    
Events      
Averages and records for this station are not official NWS values.
T = Trace of Precipitation, MM = Missing Value Source: NWS Daily Summary

Daily Weather History Graph

Daily Weather History Graph

Search for Another Location

Airport or City:

Trip Planner

Search our weather history database for the weather conditions in past years. The results will help you decide how hot, cold, wet, or windy it might be!

Date:

Astronomy

Oct. 11, 2015 Rise Set
Actual Time 7:00 AM PDT 6:21 PM PDT
Civil Twilight 6:33 AM PDT 6:48 PM PDT
Nautical Twilight 6:02 AM PDT 7:19 PM PDT
Astronomical Twilight 5:31 AM PDT 7:51 PM PDT
Moon 5:45 AM PDT (10/11) 5:55 PM PDT (10/11)
Length of Visible Light 12h 15m
Length of Day
11h 21m
Waning Crescent, 1% of the Moon is Illuminated
Oct 11
Waning Crescent
Oct 12
New
Oct 20
First Quarter
Oct 27
Full
Nov 3
Last Quarter

Hourly Weather History & Observations

Time (PDT) Temp. Dew Point Humidity Pressure Visibility Wind Dir Wind Speed Gust Speed Precip Events Conditions
12:56 AM 68.0 °F 30.0 °F 24% 30.01 in 10.0 mi WNW 8.1 mph - N/A   Clear
1:56 AM 68.0 °F 27.0 °F 21% 30.01 in 10.0 mi West 11.5 mph - N/A   Clear
2:56 AM 64.0 °F 27.0 °F 25% 30.01 in 10.0 mi West 9.2 mph - N/A   Clear
3:56 AM 55.0 °F 28.9 °F 37% 30.02 in 10.0 mi East 6.9 mph - N/A   Clear
4:56 AM 55.0 °F 32.0 °F 42% 30.02 in 10.0 mi East 3.5 mph - N/A   Clear
5:56 AM 51.1 °F 32.0 °F 48% 30.04 in 10.0 mi NNE 3.5 mph - N/A   Clear
6:56 AM 50.0 °F 33.1 °F 52% 30.06 in 10.0 mi Calm Calm - N/A   Clear
7:56 AM 55.9 °F 36.0 °F 47% 30.08 in 10.0 mi Calm Calm - N/A   Clear
8:56 AM 63.0 °F 35.1 °F 35% 30.10 in 10.0 mi SW 3.5 mph - N/A   Clear
9:56 AM 70.0 °F 30.0 °F 23% 30.10 in 10.0 mi Variable 3.5 mph - N/A   Clear
10:56 AM 73.0 °F 30.9 °F 21% 30.10 in 10.0 mi Calm Calm - N/A   Clear
11:01 AM 75.0 °F 30.9 °F 20% 30.21 in 10.0 mi Variable 4.6 mph - N/A   Partly Cloudy
11:56 AM 78.1 °F 30.9 °F 18% 30.09 in 10.0 mi North 8.1 mph - N/A   Partly Cloudy
12:56 PM 81.0 °F 30.0 °F 16% 30.07 in 10.0 mi Variable 4.6 mph - N/A   Partly Cloudy
1:56 PM 82.9 °F 26.1 °F 13% 30.05 in 10.0 mi Variable 4.6 mph - N/A   Partly Cloudy
2:56 PM 84.9 °F 24.1 °F 11% 30.02 in 10.0 mi NE 5.8 mph - N/A   Partly Cloudy
3:56 PM 82.9 °F 21.9 °F 11% 30.00 in 10.0 mi Variable 4.6 mph - N/A   Partly Cloudy
4:56 PM 84.0 °F 14.0 °F 7% 30.00 in 10.0 mi Variable 3.5 mph - N/A   Clear
5:56 PM 81.0 °F 21.0 °F 11% 30.00 in 10.0 mi North 4.6 mph - N/A   Clear
6:56 PM 69.1 °F 26.1 °F 20% 30.01 in 10.0 mi NNE 6.9 mph - N/A   Clear
7:56 PM 64.9 °F 27.0 °F 24% 30.02 in 10.0 mi NNE 5.8 mph - N/A   Clear
8:56 PM 61.0 °F 28.0 °F 29% 30.02 in 10.0 mi North 5.8 mph - N/A   Clear
9:56 PM 60.1 °F 30.0 °F 32% 30.03 in 10.0 mi Calm Calm - N/A   Clear
10:56 PM 55.9 °F 32.0 °F 40% 30.04 in 10.0 mi Calm Calm - N/A   Clear
11:56 PM 53.1 °F 33.1 °F 47% 30.05 in 10.0 mi Calm Calm - N/A   Clear